Location: Unspecified
(0.0000°N, 0.0000°E)
Time: 16:18:28
(UTC+00:00)

Vanguard 1 - Pass Details

Date: 27 November 2019
Orbit: 651 x 3832 km, 34.3° (Epoch: 11 December)

Event Time Altitude Azimuth Distance (km) Brightness Sun altitude
Rises 07:49:50 0° 269° (W) 7,794 14.2 28.3°
Reaches altitude 10° 07:57:52 10° 283° (WNW) 6,384 13.8 30.2°
Maximum altitude 08:10:29 21° 324° (NW) 4,546 13.2 33.0°
Drops below altitude 10° 08:19:32 10° 8° (N) 4,431 13.3 35.1°
Sets 08:23:44 0° 25° (NNE) 4,923 13.7 36.0°
